Regional Weather Roundup
Issued by NWS Charleston, SC

Home | Current Version | Previous Version | Text Only | Print | Product List | Glossary On
Versions: 1 2 3 4 5 6 7 8 9 10 11 12 13 14 15 16 17 18 19 20 21 22 23 24 25 26 27 28 29 30 31 32 33 34 35 36 37 38 39 40 41 42 43 44 45 46 47 48 49 50
000
ASUS42 KCHS 231027
RWRCHS

REGIONAL WEATHER ROUNDUP
NATIONAL WEATHER SERVICE CHARLESTON SC
600 AM EDT TUE MAY 23 2017

NOTE: "FAIR" INDICATES FEW OR NO CLOUDS BELOW 12,000 FEET WITH NO
SIGNIFICANT WEATHER AND/OR OBSTRUCTIONS TO VISIBILITY.

NOT ALL STATIONS ARE QUALITY CONTROLLED. USE DATA WITH CAUTION...
ESPECIALLY DEWPOINT OBSERVATIONS.

SCZ027-030-031-034>040-042>050-231100-
...SOUTHEAST SOUTH CAROLINA...

CITY           SKY/WX    TMP DP  RH WIND       PRES   REMARKS
N CHARLESTON   PTCLDY    70  69  97 CALM      29.84S
WATERFRONT PRK   N/A     75  74  97 SW8       29.81F
JOHNS ISLAND   FAIR      75  73  94 SW6       29.84S
PINOPOLIS        N/A     70  70 100 CALM      29.76S
MONCKS CORNER  CLOUDY    66  66 100 CALM      29.84S FOG
SUMMERVILLE    FAIR      66  66 100 CALM      29.85S
BEAUFORT MCAS  CLOUDY    73  72  96 SW8       29.84S
BEAUFORT ARPT  FAIR      72  70  94 SW7       29.85R
HILTON HEAD IS NOT AVBL
WALTERBORO     CLOUDY    68  68 100 CALM      29.86R
ALLENDALE      CLOUDY    72  70  94 CALM      29.85R

...SOUTHERN MIDLANDS AND PEE DEE...

CITY           SKY/WX    TMP DP  RH WIND       PRES   REMARKS
GEORGETOWN     CLOUDY    68  68 100 CALM      29.86F
KINGSTREE      FAIR      68  66  94 CALM      29.84F
ORANGEBURG     CLOUDY    70  69  97 SW3       29.85S
BARNWELL       CLOUDY    72  72 100 CALM      29.85R
AIKEN          CLOUDY    68  68 100 CALM      29.88S
MANNING        CLOUDY    70  70 100 CALM      29.84S
COLUMBIA       CLOUDY    71  69  93 CALM      29.84R
SUMTER         CLOUDY    70  68  94 S5        29.83F
FLORENCE       CLOUDY    69  69 100 SE5       29.84F
MYRTLE BEACH   MOCLDY    72  72 100 S12       29.87S
N MYRTLE BEACH LGT RAIN  72  70  93 S10       29.86S

$$

GAZ063-065-086>088-099>101-113>116-118-119-134>141-150-231100-
...SOUTHEAST GEORGIA...

CITY           SKY/WX    TMP DP  RH WIND       PRES   REMARKS
SAVANNAH ARPT  CLOUDY    72  69  90 SW8       29.86S
HUNTER AAF     CLOUDY    72  72 100 CALM      29.85R
FORT STEWART   CLOUDY    71  69  94 CALM      29.85R
STATESBORO     HVY RAIN  73  73 100 SW6       29.86R
SYLVANIA       RAIN      72  72 100 SW3       29.86S
CLAXTON        RAIN     N/A N/A N/A CALM      29.86S

...CSRA...CENTRAL AND FAR SOUTHEAST GEORGIA...

CITY           SKY/WX    TMP DP  RH WIND       PRES   REMARKS
THOMSON        CLOUDY    69  68  98 CALM      29.90R
AUGUSTA-BUSH   CLOUDY    72  70  93 CALM      29.84S
AUGUSTA-DANIEL CLOUDY    72  68  87 CALM      29.86R
SWAINSBORO     LGT RAIN  70  70 100 S6        29.87S
VIDALIA        RAIN      70  70 100 CALM      29.87S
EASTMAN        CLOUDY    71  71 100 S3        29.88S
HAZLEHURST     CLOUDY    74  74 100 W3        29.86R
ALMA           LGT RAIN  74  71  91 S5        29.86S
WAYCROSS       CLOUDY    75  75 100 SW6       29.88R
JESUP          FAIR      72  68  88 CALM      29.87S
BAXLEY         RAIN      73  73 100 CALM      29.86S
BRUNSWICK      CLOUDY    73  72  94 SW7       29.89R
SAINT SIMONS   CLOUDY    75  71  87 SW9       29.88R

$$

SCZ027-028-034-036>038-045-046-048>050-GAZ119-141-231100-
...LAKE AND SUPPLEMENTAL COASTAL OBSERVATIONS...

STATION/POSITION TIME  TEMP    WIND        PRES    WAVE   SWELL
                       AIR SEA DIR/SP/G            HT/PER HT/PER/DIR
                 (UTC) (F)     (DEG/KT/KT) (MB)    (FT/S) (FT/S/D)
WINYAH BAY       0930   72     240/  3     1011.0S
LAKE MURRAY      0950   71     270/  6/  9 1010.2F
ACE BASIN NERRS  0945   72        CALM     1010.0F
FORT PULASKI     1000   74 80  240/  9/ 13 1011.4
SAPELO ISLAND    0945   73     210/ 10     1011.0S

$$

ANZ835-935-AMZ111-154-330-350-352-354-370-450-454-472-231100-
...C-MAN AND BUOY OBSERVATIONS...

STATION/POSITION TIME  TEMP    WIND        PRES    WAVE   SWELL
                       AIR SEA DIR/SP/G            HT/PER HT/PER/DIR
                 (UTC) (F)     (DEG/KT/KT) (MB)    (FT/S) (FT/S/D)
BUOY 41004       1010   77 78  220/ 17/ 21 1010.6
BUOY 41008       0950   77 78  220/ 14/ 17 1010.8R   4/ 5   2/ 80/ 8
FOLLY BEACH CMAN 1000   76     230/ 12/ 15 1011.0F
CAPERS NEARSHORE 1008   78 76  220/ 14/ 17 1010.1F
FRIPP NEARSHORE  1008   77 78  230/ 16/ 21 1010.0F


STATION/POSITION TIME  TEMP    WIND        PRES    WAVE   SWELL
                       AIR SEA DIR/SP/G            HT/PER HT/PER/DIR
                 (UTC) (F)     (DEG/KT/KT) (MB)    (FT/S) (FT/S/D)
5E ST. MARYS GA  1000      79                N/A     3/ 5
FRYING PAN BUOY  1010   72 77  220/ 12/ 16 1011.5
BUOY 41025       0950   73 77  170/  8/ 10 1012.7R   4/ 5   3/200/ 5
CAPE LOOKOUT NC  1000   73     200/ 12/ 15 1012.0R
BUOY 41002       0950   75 76  180/ 16/ 17 1014.8S   3/ 4   2/ 30/ 8
BUOY 41010       1010   78 79  180/ 14/ 17 1014.0
ST AUGUSTINE FL  1000   71 78  220/  6/  9 1013.4R


$$




USA.gov is the U.S. government's official web portal to all federal, state and local government web resources and services.